CW5212 Weather Reports


Display with metric or nautical units.
time (UTC)temp
F
wind
direction
speed
MPH
gust
MPH
rain 1hr
in
rain 24hr
in
rain mn
in
humidity
%
barometer
mb
20260504174507 62 157 6.0 11.0 0.00 0.00 0.00 27 939.4
20260504173040 62 151 4.0 11.0 0.00 0.00 0.00 28 939.4
20260504171520 61 149 5.0 9.0 0.00 0.00 0.00 28 939.5
20260504140110 55 169 1.0 3.0 0.00 0.00 0.00 33 939.7
20260504081544 53 63 0.0 3.0 0.00 0.00 0.00 32 940.1
20260504044525 56 110 9.0 12.0 0.00 0.00 0.00 29 941.2
20260504043004 57 110 8.0 11.0 0.00 0.00 0.00 28 941.2
20260504041551 57 121 7.0 13.0 0.00 0.00 0.00 31 941.2
20260504040049 57 117 8.0 11.0 0.00 0.00 0.00 26 941.1
20260504034551 58 111 6.0 10.0 0.00 0.00 0.00 26 941.1
20260504033108 58 108 7.0 9.0 0.00 0.00 0.00 26 941.1
20260504031604 58 109 7.0 10.0 0.00 0.00 0.00 25 941.1
20260504031506 58 116 7.0 10.0 0.00 0.00 0.00 25 941.1
20260504030006 58 85 6.0 10.0 0.00 0.00 0.00 26 941.0
20260504024528 58 136 6.0 9.0 0.00 0.00 0.00 26 941.0
20260504023101 59 107 4.0 8.0 0.00 0.00 0.00 26 941.0
20260504023007 59 107 4.0 8.0 0.00 0.00 0.00 25 941.1
20260504021506 60 117 5.0 8.0 0.00 0.00 0.00 25 941.1
20260504020006 61 117 4.0 8.0 0.00 0.00 0.00 24 941.1
20260504014601 62 128 3.0 6.0 0.00 0.00 0.00 24 941.3
20260504014502 62 164 2.0 5.0 0.00 0.00 0.00 23 941.3
20260504013005 63 127 2.0 8.0 0.00 0.00 0.00 22 941.5
20260504011557 65 180 5.0 9.0 0.00 0.00 0.00 21 941.7
20260504011505 65 163 5.0 9.0 0.00 0.00 0.00 21 941.7
20260504010055 66 209 4.0 10.0 0.00 0.00 0.00 19 941.8
20260504004601 67 201 0.0 10.0 0.00 0.00 0.00 15 941.9
20260504003046 67 254 7.0 14.0 0.00 0.00 0.00 15 942.1
20260504001556 68 246 5.0 12.0 0.00 0.00 0.00 17 942.1
20260504000042 68 267 0.0 7.0 0.00 0.00 0.00 16 942.1
20260503234542 67 273 0.0 10.0 0.00 0.00 0.00 18 942.4
20260503233047 67 202 7.0 13.0 0.00 0.00 0.00 17 942.4
20260503231554 67 285 6.0 17.0 0.00 0.00 0.00 16 942.6
20260503230050 67 252 9.0 16.0 0.00 0.00 0.00 16 942.6
20260503224542 67 229 8.0 16.0 0.00 0.00 0.00 16 942.8
20260503223039 67 288 11.0 20.0 0.00 0.00 0.00 17 942.9
20260503221530 67 257 7.0 18.0 0.00 0.00 0.00 18 943.0
20260503220015 68 281 7.0 15.0 0.00 0.00 0.00 17 943.4
20260503214551 67 351 7.0 20.0 0.00 0.00 0.00 15 943.5
20260503213029 68 254 8.0 16.0 0.00 0.00 0.00 17 943.7
20260503211507 67 283 8.0 16.0 0.00 0.00 0.00 17 943.8
20260503210041 67 327 3.0 16.0 0.00 0.00 0.00 20 944.0
20260503204520 67 198 8.0 17.0 0.00 0.00 0.00 16 944.1
20260503203101 67 263 10.0 19.0 0.00 0.00 0.00 17 944.4
20260503203003 67 266 9.0 19.0 0.00 0.00 0.00 17 944.4
20260503201535 67 290 5.0 17.0 0.00 0.00 0.00 21 944.4
20260503200015 67 252 10.0 16.0 0.00 0.00 0.00 17 944.7
20260503194550 67 223 6.0 13.0 0.00 0.00 0.00 17 944.9
20260503193038 65 258 7.0 16.0 0.00 0.00 0.00 17 945.1
20260503191505 66 288 4.0 11.0 0.00 0.00 0.00 18 945.2
20260503190049 65 270 6.0 14.0 0.00 0.00 0.00 17 945.5
20260503184523 64 218 5.0 12.0 0.00 0.00 0.00 18 945.6
20260503183057 64 249 5.0 12.0 0.00 0.00 0.00 22 945.7
20260503181538 64 277 5.0 10.0 0.00 0.00 0.00 21 945.8
20260503180013 64 271 2.0 7.0 0.00 0.00 0.00 20 945.9